Time,TemperatureF,DewpointF,PressureIn,WindDirection,WindDirectionDegrees,WindSpeedMPH,WindSpeedGustMPH,Humidity,HourlyPrecipIn,Conditions,Clouds,dailyrainin,SoftwareType,DateUTC
2013-04-05 00:00:00,38.8,33.8,30.17,WSW,247,5.0,13.0,82,0.00,,,0.00,meteohub,2013-04-05 04:00:00,
2013-04-05 00:01:00,38.8,33.8,30.17,NW,322,6.0,13.0,82,0.00,,,0.00,meteohub,2013-04-05 04:01:00,
2013-04-05 00:02:00,38.8,33.8,30.17,WNW,288,9.0,13.0,82,0.00,,,0.00,meteohub,2013-04-05 04:02:00,
2013-04-05 00:07:00,39.0,34.0,30.16,NW,323,3.0,12.0,82,0.00,,,0.00,meteohub,2013-04-05 04:07:00,
2013-04-05 00:12:00,39.0,34.0,30.16,West,279,6.0,12.0,82,0.00,,,0.00,meteohub,2013-04-05 04:12:00,
2013-04-05 00:18:00,39.0,34.0,30.16,WNW,300,3.0,11.0,82,0.00,,,0.00,meteohub,2013-04-05 04:18:00,
2013-04-05 00:23:00,39.2,34.2,30.16,West,279,9.0,10.0,82,0.00,,,0.00,meteohub,2013-04-05 04:23:00,
2013-04-05 00:28:00,39.4,34.3,30.16,WNW,284,11.0,11.0,82,0.00,,,0.00,meteohub,2013-04-05 04:28:00,
2013-04-05 00:33:00,39.4,34.3,30.16,WNW,294,5.0,12.0,82,0.00,,,0.00,meteohub,2013-04-05 04:33:00,
2013-04-05 00:39:00,39.6,34.5,30.16,WNW,285,5.0,12.0,82,0.00,,,0.00,meteohub,2013-04-05 04:39:00,
2013-04-05 00:44:00,39.6,34.5,30.16,West,277,9.0,15.0,82,0.00,,,0.00,meteohub,2013-04-05 04:44:00,
2013-04-05 00:49:00,39.6,34.5,30.16,WNW,290,6.0,15.0,82,0.00,,,0.00,meteohub,2013-04-05 04:49:00,
2013-04-05 00:54:00,39.6,34.5,30.16,WNW,292,8.0,13.0,82,0.00,,,0.00,meteohub,2013-04-05 04:54:00,
2013-04-05 01:00:00,39.6,34.5,30.16,NW,313,5.0,13.0,82,0.00,,,0.00,meteohub,2013-04-05 05:00:00,
2013-04-05 01:05:00,39.6,34.2,30.15,NNW,333,7.0,13.0,81,0.00,,,0.00,meteohub,2013-04-05 05:05:00,
2013-04-05 01:10:00,39.6,34.5,30.15,NW,304,6.0,13.0,82,0.00,,,0.00,meteohub,2013-04-05 05:10:00,
2013-04-05 01:15:00,39.6,34.5,30.15,NNW,347,3.0,12.0,82,0.00,,,0.00,meteohub,2013-04-05 05:15:00,
2013-04-05 01:21:00,39.7,34.7,30.14,West,281,5.0,13.0,82,0.00,,,0.00,meteohub,2013-04-05 05:21:00,
2013-04-05 01:26:00,39.7,34.3,30.14,WNW,296,6.0,13.0,81,0.00,,,0.00,meteohub,2013-04-05 05:26:00,
2013-04-05 01:31:00,39.7,34.3,30.13,NW,318,11.0,12.0,81,0.00,,,0.00,meteohub,2013-04-05 05:31:00,
2013-04-05 01:36:00,39.7,34.2,30.13,NW,312,6.0,13.0,80,0.00,,,0.00,meteohub,2013-04-05 05:36:00,
2013-04-05 01:41:00,39.9,34.3,30.13,NW,317,6.0,13.0,80,0.00,,,0.00,meteohub,2013-04-05 05:41:00,
2013-04-05 01:47:00,39.9,33.6,30.13,NW,321,9.0,13.0,78,0.00,,,0.00,meteohub,2013-04-05 05:47:00,
2013-04-05 01:52:00,40.1,33.4,30.13,NNW,344,8.0,13.0,77,0.00,,,0.00,meteohub,2013-04-05 05:52:00,
2013-04-05 01:57:00,40.1,33.1,30.13,NNW,333,7.0,13.0,76,0.00,,,0.00,meteohub,2013-04-05 05:57:00,
2013-04-05 02:02:00,40.3,33.1,30.13,North,0,12.0,12.0,75,0.00,,,0.00,meteohub,2013-04-05 06:02:00,
2013-04-05 02:07:00,40.5,33.1,30.13,WNW,290,7.0,15.0,75,0.00,,,0.00,meteohub,2013-04-05 06:07:00,
2013-04-05 02:12:00,40.5,33.1,30.13,WNW,293,8.0,15.0,75,0.00,,,0.00,meteohub,2013-04-05 06:12:00,
2013-04-05 02:17:00,40.6,33.3,30.12,WNW,301,5.0,15.0,75,0.00,,,0.00,meteohub,2013-04-05 06:17:00,
2013-04-05 02:22:00,40.6,34.0,30.12,NW,315,6.0,14.0,77,0.00,,,0.00,meteohub,2013-04-05 06:22:00,
2013-04-05 02:28:00,40.6,34.3,30.12,NNW,348,7.0,14.0,78,0.00,,,0.00,meteohub,2013-04-05 06:28:00,
2013-04-05 02:34:00,40.8,34.9,30.11,NW,304,10.0,13.0,79,0.00,,,0.00,meteohub,2013-04-05 06:34:00,
2013-04-05 02:39:00,40.8,35.1,30.11,West,276,6.0,13.0,80,0.00,,,0.00,meteohub,2013-04-05 06:39:00,
2013-04-05 02:44:00,40.8,35.4,30.11,WNW,298,8.0,15.0,81,0.00,,,0.00,meteohub,2013-04-05 06:44:00,
2013-04-05 02:49:00,40.8,35.4,30.10,NW,324,6.0,15.0,81,0.00,,,0.00,meteohub,2013-04-05 06:49:00,
2013-04-05 02:55:00,40.8,35.4,30.11,NW,309,9.0,15.0,81,0.00,,,0.00,meteohub,2013-04-05 06:55:00,
2013-04-05 03:00:00,40.8,35.8,30.11,NW,313,7.0,14.0,82,0.00,,,0.00,meteohub,2013-04-05 07:00:00,
2013-04-05 03:05:00,40.8,35.8,30.10,NNW,340,8.0,16.0,82,0.00,,,0.00,meteohub,2013-04-05 07:05:00,
2013-04-05 03:10:00,40.8,35.8,30.10,NW,322,12.0,16.0,82,0.00,,,0.00,meteohub,2013-04-05 07:10:00,
2013-04-05 03:16:00,41.0,36.0,30.09,NW,304,9.0,16.0,82,0.00,,,0.00,meteohub,2013-04-05 07:16:00,
2013-04-05 03:21:00,41.2,36.1,30.09,WNW,297,12.0,13.0,82,0.00,,,0.00,meteohub,2013-04-05 07:21:00,
2013-04-05 03:26:00,41.2,35.8,30.09,NW,319,8.0,14.0,81,0.00,,,0.00,meteohub,2013-04-05 07:26:00,
2013-04-05 03:31:00,41.2,35.8,30.08,NW,310,7.0,14.0,81,0.00,,,0.00,meteohub,2013-04-05 07:31:00,
2013-04-05 03:36:00,41.4,36.0,30.08,West,277,9.0,15.0,81,0.00,,,0.00,meteohub,2013-04-05 07:36:00,
2013-04-05 03:42:00,41.4,36.0,30.08,WNW,302,3.0,15.0,81,0.00,,,0.00,meteohub,2013-04-05 07:42:00,
2013-04-05 03:47:00,41.4,36.0,30.07,WNW,294,9.0,15.0,81,0.00,,,0.00,meteohub,2013-04-05 07:47:00,
2013-04-05 03:52:00,41.4,36.0,30.07,NW,314,6.0,15.0,81,0.00,,,0.00,meteohub,2013-04-05 07:52:00,
2013-04-05 03:57:00,41.4,36.0,30.07,NW,319,9.0,15.0,81,0.00,,,0.00,meteohub,2013-04-05 07:57:00,
2013-04-05 04:02:00,41.4,36.0,30.06,NW,308,8.0,15.0,81,0.00,,,0.00,meteohub,2013-04-05 08:02:00,
2013-04-05 04:08:00,41.4,36.0,30.06,NW,323,7.0,18.0,81,0.00,,,0.00,meteohub,2013-04-05 08:08:00,
2013-04-05 04:13:00,41.4,36.0,30.06,WNW,295,8.0,18.0,81,0.00,,,0.00,meteohub,2013-04-05 08:13:00,
2013-04-05 04:18:00,41.4,36.0,30.06,West,260,5.0,18.0,81,0.00,,,0.00,meteohub,2013-04-05 08:18:00,
2013-04-05 04:24:00,41.4,36.0,30.06,NW,310,9.0,16.0,81,0.00,,,0.00,meteohub,2013-04-05 08:24:00,
2013-04-05 04:29:00,41.4,36.0,30.06,NNW,345,8.0,15.0,81,0.00,,,0.00,meteohub,2013-04-05 08:29:00,
2013-04-05 04:35:00,41.4,36.0,30.06,NW,307,8.0,14.0,81,0.00,,,0.00,meteohub,2013-04-05 08:35:00,
2013-04-05 04:40:00,41.4,36.0,30.06,NW,323,5.0,14.0,81,0.00,,,0.00,meteohub,2013-04-05 08:40:00,
2013-04-05 04:45:00,41.4,36.0,30.06,NW,316,8.0,15.0,81,0.00,,,0.00,meteohub,2013-04-05 08:45:00,
2013-04-05 04:51:00,41.4,36.0,30.06,NW,310,5.0,16.0,81,0.00,,,0.00,meteohub,2013-04-05 08:51:00,
2013-04-05 04:56:00,41.5,36.1,30.06,WNW,303,6.0,16.0,81,0.00,,,0.00,meteohub,2013-04-05 08:56:00,
2013-04-05 05:02:00,41.4,35.6,30.06,WNW,300,12.0,16.0,80,0.00,,,0.00,meteohub,2013-04-05 09:02:00,
2013-04-05 05:07:00,41.5,35.8,30.06,WNW,294,17.0,17.0,80,0.00,,,0.00,meteohub,2013-04-05 09:07:00,
2013-04-05 05:12:00,41.5,35.8,30.06,NW,306,10.0,18.0,80,0.00,,,0.00,meteohub,2013-04-05 09:12:00,
2013-04-05 05:17:00,41.5,35.8,30.06,WNW,287,8.0,18.0,80,0.00,,,0.00,meteohub,2013-04-05 09:17:00,
2013-04-05 05:22:00,41.4,36.0,30.06,WNW,282,8.0,17.0,81,0.00,,,0.00,meteohub,2013-04-05 09:22:00,
2013-04-05 05:27:00,41.4,36.0,30.05,NW,313,13.0,17.0,81,0.00,,,0.00,meteohub,2013-04-05 09:27:00,
2013-04-05 05:32:00,41.4,36.0,30.05,WNW,289,7.0,14.0,81,0.00,,,0.00,meteohub,2013-04-05 09:32:00,
2013-04-05 05:37:00,41.4,36.0,30.04,WNW,292,10.0,20.0,81,0.00,,,0.00,meteohub,2013-04-05 09:37:00,
2013-04-05 05:42:00,41.4,36.0,30.04,NNW,333,10.0,20.0,81,0.00,,,0.00,meteohub,2013-04-05 09:42:00,
2013-04-05 05:47:00,41.2,36.1,30.04,West,277,11.0,20.0,82,0.00,,,0.00,meteohub,2013-04-05 09:47:00,
2013-04-05 05:53:00,41.2,36.1,30.03,NNW,334,3.0,15.0,82,0.00,,,0.00,meteohub,2013-04-05 09:53:00,
2013-04-05 05:58:00,41.0,36.0,30.03,WNW,303,12.0,14.0,82,0.00,,,0.00,meteohub,2013-04-05 09:58:00,
2013-04-05 06:03:00,41.0,36.0,30.03,WNW,282,9.0,13.0,82,0.00,,,0.00,meteohub,2013-04-05 10:03:00,
2013-04-05 06:08:00,41.0,36.0,30.02,NW,308,7.0,13.0,82,0.00,,,0.00,meteohub,2013-04-05 10:08:00,
2013-04-05 06:14:00,41.0,36.0,30.02,WNW,302,5.0,13.0,82,0.00,,,0.00,meteohub,2013-04-05 10:14:00,
2013-04-05 06:19:00,41.0,36.0,30.02,NNW,343,7.0,17.0,82,0.00,,,0.00,meteohub,2013-04-05 10:19:00,
2013-04-05 06:24:00,41.2,36.1,30.02,NW,321,8.0,17.0,82,0.00,,,0.00,meteohub,2013-04-05 10:24:00,
2013-04-05 06:30:00,41.2,36.1,30.02,NW,308,8.0,19.0,82,0.00,,,0.00,meteohub,2013-04-05 10:30:00,
2013-04-05 06:35:00,41.2,35.8,30.02,NW,317,11.0,19.0,81,0.00,,,0.00,meteohub,2013-04-05 10:35:00,
2013-04-05 06:40:00,41.2,35.4,30.02,WNW,290,11.0,14.0,80,0.00,,,0.00,meteohub,2013-04-05 10:40:00,
2013-04-05 06:45:00,41.4,35.4,30.02,WNW,296,8.0,14.0,79,0.00,,,0.00,meteohub,2013-04-05 10:45:00,
2013-04-05 06:51:00,41.5,35.2,30.02,NW,315,9.0,14.0,78,0.00,,,0.00,meteohub,2013-04-05 10:51:00,
2013-04-05 06:56:00,41.5,34.9,30.03,NW,306,7.0,14.0,77,0.00,,,0.00,meteohub,2013-04-05 10:56:00,
2013-04-05 07:02:00,41.5,34.9,30.03,NW,307,4.0,14.0,77,0.00,,,0.00,meteohub,2013-04-05 11:02:00,
2013-04-05 07:07:00,41.7,35.1,30.03,NW,315,6.0,14.0,77,0.00,,,0.00,meteohub,2013-04-05 11:07:00,
2013-04-05 07:12:00,41.7,35.1,30.03,NNW,328,14.0,14.0,77,0.00,,,0.00,meteohub,2013-04-05 11:12:00,
2013-04-05 07:17:00,41.7,35.4,30.03,WNW,302,8.0,14.0,78,0.00,,,0.00,meteohub,2013-04-05 11:17:00,
2013-04-05 07:22:00,41.9,35.6,30.03,NW,315,9.0,14.0,78,0.00,,,0.00,meteohub,2013-04-05 11:22:00,
2013-04-05 07:27:00,41.9,35.6,30.03,West,259,8.0,14.0,78,0.00,,,0.00,meteohub,2013-04-05 11:27:00,
2013-04-05 07:32:00,42.1,35.4,30.03,NW,312,7.0,14.0,77,0.00,,,0.00,meteohub,2013-04-05 11:32:00,
2013-04-05 07:37:00,42.1,35.4,30.03,WNW,300,9.0,12.0,77,0.00,,,0.00,meteohub,2013-04-05 11:37:00,
2013-04-05 07:43:00,42.3,35.6,30.03,NW,311,5.0,12.0,77,0.00,,,0.00,meteohub,2013-04-05 11:43:00,
2013-04-05 07:48:00,42.3,35.6,30.03,NNW,331,4.0,12.0,77,0.00,,,0.00,meteohub,2013-04-05 11:48:00,
2013-04-05 07:53:00,42.1,35.8,30.03,WNW,289,5.0,11.0,78,0.00,,,0.00,meteohub,2013-04-05 11:53:00,
2013-04-05 07:58:00,42.1,36.0,30.02,NW,311,3.0,8.0,79,0.00,,,0.00,meteohub,2013-04-05 11:58:00,
2013-04-05 08:04:00,41.9,35.8,30.02,NNW,332,2.0,7.0,79,0.00,,,0.00,meteohub,2013-04-05 12:04:00,
2013-04-05 08:09:00,41.9,35.8,30.02,NW,317,3.0,7.0,79,0.00,,,0.00,meteohub,2013-04-05 12:09:00,
2013-04-05 08:14:00,42.1,36.0,30.01,WNW,300,8.0,8.0,79,0.00,,,0.00,meteohub,2013-04-05 12:14:00,
2013-04-05 08:19:00,42.1,36.0,30.01,WNW,285,7.0,7.0,79,0.00,,,0.00,meteohub,2013-04-05 12:19:00,
2013-04-05 08:25:00,42.1,36.0,30.01,WNW,293,4.0,10.0,79,0.00,,,0.00,meteohub,2013-04-05 12:25:00,
2013-04-05 08:30:00,41.9,36.1,30.00,NW,323,4.0,10.0,80,0.00,,,0.00,meteohub,2013-04-05 12:30:00,
2013-04-05 08:35:00,41.9,36.1,29.99,WNW,300,3.0,8.0,80,0.00,,,0.00,meteohub,2013-04-05 12:35:00,
2013-04-05 08:40:00,41.9,36.1,29.99,NW,314,6.0,7.0,80,0.00,,,0.00,meteohub,2013-04-05 12:40:00,
2013-04-05 08:46:00,42.1,36.3,29.99,WNW,294,3.0,8.0,80,0.00,,,0.00,meteohub,2013-04-05 12:46:00,
2013-04-05 08:51:00,42.1,36.3,29.99,NNW,347,4.0,8.0,80,0.00,,,0.00,meteohub,2013-04-05 12:51:00,
2013-04-05 08:56:00,42.1,36.3,29.98,West,274,4.0,9.0,80,0.00,,,0.00,meteohub,2013-04-05 12:56:00,
2013-04-05 09:01:00,41.9,36.1,29.98,WNW,285,4.0,9.0,80,0.00,,,0.00,meteohub,2013-04-05 13:01:00,
2013-04-05 09:07:00,41.9,36.1,29.99,West,277,6.0,9.0,80,0.00,,,0.00,meteohub,2013-04-05 13:07:00,
2013-04-05 09:12:00,41.9,36.1,29.99,WNW,300,3.0,8.0,80,0.00,,,0.00,meteohub,2013-04-05 13:12:00,
2013-04-05 09:17:00,41.7,36.3,29.99,WNW,298,4.0,8.0,81,0.00,,,0.00,meteohub,2013-04-05 13:17:00,
2013-04-05 09:22:00,41.7,36.7,29.99,WNW,284,3.0,8.0,82,0.00,,,0.00,meteohub,2013-04-05 13:22:00,
2013-04-05 09:27:00,41.7,36.9,29.99,NW,323,5.0,8.0,83,0.00,,,0.00,meteohub,2013-04-05 13:27:00,
2013-04-05 09:32:00,41.7,37.2,29.99,NW,322,3.0,8.0,84,0.00,,,0.00,meteohub,2013-04-05 13:32:00,
2013-04-05 09:37:00,41.7,37.6,29.98,West,269,3.0,7.0,85,0.00,,,0.00,meteohub,2013-04-05 13:37:00,
2013-04-05 09:43:00,41.5,37.6,29.98,WNW,296,3.0,7.0,86,0.01,,,0.00,meteohub,2013-04-05 13:43:00,
2013-04-05 09:48:00,41.5,37.9,29.98,West,263,3.0,6.0,87,0.01,,,0.01,meteohub,2013-04-05 13:48:00,
2013-04-05 09:53:00,41.4,38.1,29.98,WNW,297,2.0,6.0,88,0.01,,,0.01,meteohub,2013-04-05 13:53:00,
2013-04-05 09:58:00,41.4,38.1,29.98,WNW,284,4.0,6.0,88,0.01,,,0.01,meteohub,2013-04-05 13:58:00,
2013-04-05 10:04:00,41.4,38.3,29.97,WNW,285,4.0,6.0,89,0.01,,,0.01,meteohub,2013-04-05 14:04:00,
2013-04-05 10:09:00,41.2,38.1,29.97,West,281,4.0,5.0,89,0.01,,,0.01,meteohub,2013-04-05 14:09:00,
2013-04-05 10:14:00,41.0,38.3,29.96,West,272,3.0,7.0,90,0.01,,,0.01,meteohub,2013-04-05 14:14:00,
2013-04-05 10:20:00,41.2,38.5,29.96,NW,306,3.0,7.0,90,0.01,,,0.02,meteohub,2013-04-05 14:20:00,
2013-04-05 10:25:00,41.2,38.5,29.96,NNW,336,2.0,6.0,90,0.02,,,0.02,meteohub,2013-04-05 14:25:00,
2013-04-05 10:32:00,41.2,38.8,29.95,WNW,288,1.0,5.0,91,0.02,,,0.02,meteohub,2013-04-05 14:32:00,
2013-04-05 10:38:00,41.2,38.8,29.95,WNW,296,2.0,5.0,91,0.02,,,0.02,meteohub,2013-04-05 14:38:00,
2013-04-05 10:43:00,41.2,38.8,29.94,West,275,3.0,5.0,91,0.01,,,0.02,meteohub,2013-04-05 14:43:00,
2013-04-05 10:48:00,41.0,38.7,29.94,NNW,333,3.0,4.0,91,0.01,,,0.02,meteohub,2013-04-05 14:48:00,
2013-04-05 10:53:00,41.0,38.7,29.95,NNW,335,3.0,5.0,91,0.01,,,0.02,meteohub,2013-04-05 14:53:00,
2013-04-05 10:59:00,41.0,38.7,29.94,WNW,303,4.0,5.0,91,0.01,,,0.02,meteohub,2013-04-05 14:59:00,
2013-04-05 11:05:00,41.2,39.0,29.94,NW,304,2.0,6.0,92,0.01,,,0.02,meteohub,2013-04-05 15:05:00,
2013-04-05 11:10:00,41.2,39.0,29.93,West,269,3.0,6.0,92,0.02,,,0.03,meteohub,2013-04-05 15:10:00,
2013-04-05 11:15:00,41.2,39.0,29.93,WNW,298,3.0,5.0,92,0.02,,,0.03,meteohub,2013-04-05 15:15:00,
2013-04-05 11:20:00,40.8,38.7,29.93,NW,324,2.0,4.0,92,0.01,,,0.03,meteohub,2013-04-05 15:20:00,
2013-04-05 11:25:00,40.8,38.7,29.93,NW,308,2.0,6.0,92,0.01,,,0.03,meteohub,2013-04-05 15:25:00,
2013-04-05 11:30:00,40.8,38.7,29.93,NW,308,2.0,6.0,92,0.01,,,0.03,meteohub,2013-04-05 15:30:00,
2013-04-05 11:36:00,41.0,38.8,29.93,NW,316,1.0,6.0,92,0.01,,,0.03,meteohub,2013-04-05 15:36:00,
2013-04-05 11:41:00,41.2,39.0,29.93,NNW,328,2.0,4.0,92,0.02,,,0.04,meteohub,2013-04-05 15:41:00,
2013-04-05 11:46:00,41.2,39.0,29.92,NNW,328,1.0,4.0,92,0.02,,,0.04,meteohub,2013-04-05 15:46:00,
2013-04-05 11:51:00,41.2,39.0,29.91,NNW,328,1.0,4.0,92,0.02,,,0.04,meteohub,2013-04-05 15:51:00,
2013-04-05 11:56:00,41.4,39.2,29.91,NNW,328,1.0,4.0,92,0.02,,,0.04,meteohub,2013-04-05 15:56:00,
2013-04-05 12:02:00,41.4,39.6,29.91,WNW,296,1.0,4.0,93,0.02,,,0.04,meteohub,2013-04-05 16:02:00,
2013-04-05 12:07:00,41.5,39.7,29.90,WNW,296,1.0,4.0,93,0.02,,,0.05,meteohub,2013-04-05 16:07:00,
2013-04-05 12:12:00,41.5,39.7,29.90,WNW,296,1.0,4.0,93,0.02,,,0.05,meteohub,2013-04-05 16:12:00,
2013-04-05 12:17:00,41.5,39.7,29.89,WNW,296,0.0,2.0,93,0.02,,,0.05,meteohub,2013-04-05 16:17:00,
2013-04-05 12:22:00,41.7,39.9,29.89,WNW,296,0.0,2.0,93,0.02,,,0.05,meteohub,2013-04-05 16:22:00,
2013-04-05 12:28:00,41.7,39.9,29.88,WNW,296,1.0,2.0,93,0.02,,,0.05,meteohub,2013-04-05 16:28:00,
2013-04-05 12:33:00,41.5,39.7,29.88,WNW,296,0.0,3.0,93,0.02,,,0.05,meteohub,2013-04-05 16:33:00,
2013-04-05 12:38:00,41.7,39.9,29.87,WNW,296,1.0,3.0,93,0.03,,,0.06,meteohub,2013-04-05 16:38:00,
2013-04-05 12:43:00,41.7,39.9,29.86,WNW,296,0.0,3.0,93,0.02,,,0.06,meteohub,2013-04-05 16:43:00,
2013-04-05 12:49:00,41.9,40.1,29.86,WNW,296,1.0,3.0,93,0.02,,,0.06,meteohub,2013-04-05 16:49:00,
2013-04-05 12:54:00,41.9,40.1,29.85,WNW,296,1.0,3.0,93,0.02,,,0.06,meteohub,2013-04-05 16:54:00,
2013-04-05 12:59:00,41.9,40.1,29.84,WNW,296,0.0,2.0,93,0.02,,,0.06,meteohub,2013-04-05 16:59:00,
2013-04-05 13:04:00,42.1,40.3,29.84,WNW,296,0.0,2.0,93,0.01,,,0.06,meteohub,2013-04-05 17:04:00,
2013-04-05 13:10:00,42.1,40.3,29.84,WNW,296,0.0,2.0,93,0.01,,,0.06,meteohub,2013-04-05 17:10:00,
2013-04-05 13:15:00,42.3,40.5,29.83,WNW,296,0.0,3.0,93,0.01,,,0.06,meteohub,2013-04-05 17:15:00,
2013-04-05 13:20:00,42.4,40.6,29.83,WNW,296,0.0,3.0,93,0.01,,,0.06,meteohub,2013-04-05 17:20:00,
2013-04-05 13:25:00,42.8,41.2,29.82,WNW,296,0.0,2.0,94,0.01,,,0.06,meteohub,2013-04-05 17:25:00,
2013-04-05 13:31:00,43.0,41.2,29.81,WNW,296,1.0,2.0,93,0.01,,,0.06,meteohub,2013-04-05 17:31:00,
2013-04-05 13:36:00,43.3,41.7,29.81,WNW,296,0.0,2.0,94,0.00,,,0.06,meteohub,2013-04-05 17:36:00,
2013-04-05 13:42:00,43.7,42.1,29.80,West,275,0.0,2.0,94,0.00,,,0.06,meteohub,2013-04-05 17:42:00,
2013-04-05 13:47:00,44.6,43.0,29.80,West,275,1.0,4.0,94,0.00,,,0.06,meteohub,2013-04-05 17:47:00,
2013-04-05 13:52:00,45.0,43.3,29.80,NNE,18,2.0,4.0,94,0.00,,,0.06,meteohub,2013-04-05 17:52:00,
2013-04-05 13:57:00,45.0,43.0,29.79,NNE,18,0.0,4.0,93,0.00,,,0.06,meteohub,2013-04-05 17:57:00,
2013-04-05 14:02:00,45.1,43.2,29.79,NNE,18,2.0,3.0,93,0.00,,,0.06,meteohub,2013-04-05 18:02:00,
2013-04-05 14:07:00,45.1,43.2,29.79,NNE,17,0.0,3.0,93,0.00,,,0.06,meteohub,2013-04-05 18:07:00,
2013-04-05 14:13:00,45.5,43.5,29.80,NNE,17,0.0,2.0,93,0.00,,,0.06,meteohub,2013-04-05 18:13:00,
2013-04-05 14:18:00,45.9,43.9,29.79,NNE,17,2.0,2.0,93,0.00,,,0.06,meteohub,2013-04-05 18:18:00,
2013-04-05 14:24:00,45.7,43.5,29.79,NW,311,0.0,3.0,92,0.00,,,0.06,meteohub,2013-04-05 18:24:00,
2013-04-05 14:30:00,45.7,43.2,29.78,NW,311,1.0,4.0,91,0.00,,,0.06,meteohub,2013-04-05 18:30:00,
2013-04-05 14:35:00,45.9,43.3,29.76,NW,311,0.0,4.0,91,0.00,,,0.06,meteohub,2013-04-05 18:35:00,
2013-04-05 14:40:00,46.4,43.9,29.76,NW,311,1.0,3.0,91,0.00,,,0.06,meteohub,2013-04-05 18:40:00,
2013-04-05 14:46:00,46.8,44.1,29.75,East,94,0.0,4.0,90,0.00,,,0.06,meteohub,2013-04-05 18:46:00,
2013-04-05 14:51:00,47.1,44.1,29.76,NW,309,2.0,4.0,89,0.00,,,0.06,meteohub,2013-04-05 18:51:00,
2013-04-05 14:56:00,47.8,44.8,29.76,West,263,1.0,4.0,89,0.00,,,0.06,meteohub,2013-04-05 18:56:00,
2013-04-05 15:02:00,47.8,43.9,29.75,NW,312,0.0,7.0,86,0.00,,,0.06,meteohub,2013-04-05 19:02:00,
2013-04-05 15:07:00,48.4,43.5,29.75,NW,316,2.0,7.0,83,0.00,,,0.06,meteohub,2013-04-05 19:07:00,
2013-04-05 15:12:00,49.1,43.5,29.74,NW,304,4.0,7.0,81,0.00,,,0.06,meteohub,2013-04-05 19:12:00,
2013-04-05 15:17:00,48.9,42.6,29.74,West,270,0.0,7.0,79,0.00,,,0.06,meteohub,2013-04-05 19:17:00,
2013-04-05 15:22:00,48.9,42.6,29.74,WSW,252,2.0,7.0,79,0.00,,,0.06,meteohub,2013-04-05 19:22:00,
2013-04-05 15:27:00,48.9,42.6,29.73,WNW,302,1.0,7.0,79,0.00,,,0.06,meteohub,2013-04-05 19:27:00,
2013-04-05 15:33:00,49.3,43.0,29.73,WNW,303,1.0,5.0,79,0.00,,,0.06,meteohub,2013-04-05 19:33:00,
2013-04-05 15:38:00,49.8,43.9,29.73,ENE,60,3.0,5.0,80,0.00,,,0.06,meteohub,2013-04-05 19:38:00,
2013-04-05 15:43:00,49.8,43.5,29.73,East,90,5.0,5.0,79,0.00,,,0.06,meteohub,2013-04-05 19:43:00,
2013-04-05 15:49:00,49.6,44.1,29.72,SW,235,1.0,3.0,81,0.00,,,0.06,meteohub,2013-04-05 19:49:00,
2013-04-05 15:54:00,49.8,44.2,29.72,SW,232,1.0,5.0,81,0.00,,,0.06,meteohub,2013-04-05 19:54:00,
2013-04-05 15:59:00,50.4,44.8,29.71,SW,227,5.0,5.0,81,0.00,,,0.06,meteohub,2013-04-05 19:59:00,
2013-04-05 16:05:00,50.4,44.1,29.72,SW,223,2.0,5.0,79,0.00,,,0.06,meteohub,2013-04-05 20:05:00,
2013-04-05 16:10:00,50.2,43.5,29.71,East,90,1.0,7.0,78,0.00,,,0.06,meteohub,2013-04-05 20:10:00,
2013-04-05 16:15:00,50.2,43.5,29.71,SSW,194,2.0,7.0,78,0.00,,,0.06,meteohub,2013-04-05 20:15:00,
2013-04-05 16:20:00,50.2,43.5,29.71,SW,231,3.0,7.0,78,0.00,,,0.06,meteohub,2013-04-05 20:20:00,
2013-04-05 16:25:00,49.6,43.3,29.71,West,259,4.0,7.0,79,0.00,,,0.06,meteohub,2013-04-05 20:25:00,
2013-04-05 16:30:00,48.7,43.5,29.71,WNW,298,4.0,7.0,82,0.00,,,0.06,meteohub,2013-04-05 20:30:00,
2013-04-05 16:36:00,48.6,43.7,29.71,WNW,292,4.0,7.0,83,0.00,,,0.06,meteohub,2013-04-05 20:36:00,
2013-04-05 16:41:00,48.7,43.9,29.71,WNW,284,4.0,7.0,83,0.00,,,0.06,meteohub,2013-04-05 20:41:00,
2013-04-05 16:47:00,48.9,43.3,29.71,WNW,294,3.0,7.0,81,0.00,,,0.06,meteohub,2013-04-05 20:47:00,
2013-04-05 16:52:00,49.5,43.9,29.72,WNW,287,2.0,7.0,81,0.00,,,0.06,meteohub,2013-04-05 20:52:00,
2013-04-05 16:57:00,49.6,44.1,29.71,West,260,3.0,6.0,81,0.00,,,0.06,meteohub,2013-04-05 20:57:00,
2013-04-05 17:02:00,49.6,43.7,29.72,WNW,286,3.0,6.0,80,0.00,,,0.06,meteohub,2013-04-05 21:02:00,
2013-04-05 17:07:00,49.6,44.1,29.71,West,268,2.0,6.0,81,0.00,,,0.06,meteohub,2013-04-05 21:07:00,
2013-04-05 17:12:00,49.8,43.9,29.71,WNW,292,5.0,6.0,80,0.00,,,0.06,meteohub,2013-04-05 21:12:00,
2013-04-05 17:17:00,50.0,43.7,29.71,WNW,298,2.0,6.0,79,0.00,,,0.06,meteohub,2013-04-05 21:17:00,
2013-04-05 17:22:00,50.0,43.3,29.72,WNW,294,4.0,6.0,78,0.00,,,0.06,meteohub,2013-04-05 21:22:00,
2013-04-05 17:27:00,50.0,43.3,29.71,NW,306,1.0,6.0,78,0.00,,,0.06,meteohub,2013-04-05 21:27:00,
2013-04-05 17:32:00,50.2,43.5,29.72,West,269,4.0,6.0,78,0.00,,,0.06,meteohub,2013-04-05 21:32:00,
2013-04-05 17:38:00,49.6,43.3,29.72,NW,323,5.0,7.0,79,0.00,,,0.06,meteohub,2013-04-05 21:38:00,
2013-04-05 17:43:00,49.5,43.2,29.72,WNW,290,5.0,7.0,79,0.00,,,0.06,meteohub,2013-04-05 21:43:00,
2013-04-05 17:48:00,49.3,43.0,29.72,West,276,3.0,8.0,79,0.00,,,0.06,meteohub,2013-04-05 21:48:00,
2013-04-05 17:54:00,48.9,42.6,29.72,NW,318,4.0,8.0,79,0.00,,,0.06,meteohub,2013-04-05 21:54:00,
2013-04-05 17:59:00,48.9,42.6,29.71,WNW,290,2.0,7.0,79,0.00,,,0.06,meteohub,2013-04-05 21:59:00,
2013-04-05 18:04:00,48.9,43.0,29.72,WSW,255,4.0,7.0,80,0.00,,,0.06,meteohub,2013-04-05 22:04:00,
2013-04-05 18:10:00,48.7,42.4,29.72,WSW,247,2.0,7.0,79,0.00,,,0.06,meteohub,2013-04-05 22:10:00,
2013-04-05 18:15:00,48.7,42.3,29.72,WNW,282,3.0,7.0,78,0.00,,,0.06,meteohub,2013-04-05 22:15:00,
2013-04-05 18:20:00,48.6,42.1,29.72,WNW,286,5.0,6.0,78,0.00,,,0.06,meteohub,2013-04-05 22:20:00,
2013-04-05 18:25:00,48.4,42.3,29.73,West,277,3.0,6.0,79,0.00,,,0.06,meteohub,2013-04-05 22:25:00,
2013-04-05 18:31:00,48.0,41.9,29.73,WNW,286,5.0,6.0,79,0.00,,,0.06,meteohub,2013-04-05 22:31:00,
2013-04-05 18:36:00,47.8,41.7,29.73,WNW,296,4.0,6.0,79,0.00,,,0.06,meteohub,2013-04-05 22:36:00,
2013-04-05 18:41:00,47.5,41.4,29.73,NW,315,3.0,7.0,79,0.00,,,0.06,meteohub,2013-04-05 22:41:00,
2013-04-05 18:46:00,47.1,41.4,29.73,NW,321,2.0,7.0,80,0.00,,,0.06,meteohub,2013-04-05 22:46:00,
2013-04-05 18:52:00,46.8,41.2,29.73,WNW,297,4.0,7.0,81,0.00,,,0.06,meteohub,2013-04-05 22:52:00,
2013-04-05 18:57:00,46.2,41.0,29.74,WNW,302,2.0,6.0,82,0.00,,,0.06,meteohub,2013-04-05 22:57:00,
2013-04-05 19:02:00,46.0,40.8,29.74,WNW,302,3.0,6.0,82,0.00,,,0.06,meteohub,2013-04-05 23:02:00,
2013-04-05 19:07:00,45.7,40.8,29.75,WNW,301,3.0,6.0,83,0.00,,,0.06,meteohub,2013-04-05 23:07:00,
2013-04-05 19:13:00,45.1,40.6,29.74,NW,315,3.0,6.0,84,0.00,,,0.06,meteohub,2013-04-05 23:13:00,
2013-04-05 19:18:00,45.0,40.6,29.75,NW,314,2.0,6.0,85,0.00,,,0.06,meteohub,2013-04-05 23:18:00,
2013-04-05 19:23:00,44.6,40.6,29.75,NW,305,2.0,7.0,86,0.00,,,0.06,meteohub,2013-04-05 23:23:00,
2013-04-05 19:29:00,44.2,40.3,29.75,NNW,330,5.0,7.0,86,0.00,,,0.06,meteohub,2013-04-05 23:29:00,
2013-04-05 19:34:00,44.1,40.1,29.76,NNW,331,7.0,7.0,86,0.00,,,0.06,meteohub,2013-04-05 23:34:00,
2013-04-05 19:39:00,43.9,39.9,29.77,NW,306,4.0,8.0,86,0.00,,,0.06,meteohub,2013-04-05 23:39:00,
2013-04-05 19:44:00,43.5,39.6,29.77,NW,320,4.0,9.0,86,0.00,,,0.06,meteohub,2013-04-05 23:44:00,
2013-04-05 19:50:00,43.3,39.7,29.77,NW,322,4.0,9.0,87,0.00,,,0.06,meteohub,2013-04-05 23:50:00,
2013-04-05 19:55:00,43.2,39.6,29.78,NW,304,5.0,8.0,87,0.00,,,0.06,meteohub,2013-04-05 23:55:00,
2013-04-05 20:00:00,43.2,39.6,29.78,NW,309,4.0,8.0,87,0.00,,,0.06,meteohub,2013-04-06 00:00:00,
2013-04-05 20:05:00,43.0,39.4,29.78,NNW,332,4.0,8.0,87,0.00,,,0.06,meteohub,2013-04-06 00:05:00,
2013-04-05 20:10:00,43.0,39.4,29.78,NW,323,4.0,8.0,87,0.00,,,0.06,meteohub,2013-04-06 00:10:00,
2013-04-05 20:15:00,42.8,38.8,29.78,NW,313,0.0,7.0,86,0.00,,,0.06,meteohub,2013-04-06 00:15:00,
2013-04-05 20:20:00,42.6,38.7,29.78,NW,311,1.0,5.0,86,0.00,,,0.06,meteohub,2013-04-06 00:20:00,
2013-04-05 20:26:00,42.6,38.7,29.79,NNE,15,2.0,5.0,86,0.00,,,0.06,meteohub,2013-04-06 00:26:00,
2013-04-05 20:31:00,42.6,38.5,29.79,NW,321,4.0,5.0,85,0.00,,,0.06,meteohub,2013-04-06 00:31:00,
2013-04-05 20:36:00,42.6,38.5,29.80,NW,310,0.0,7.0,85,0.00,,,0.06,meteohub,2013-04-06 00:36:00,
2013-04-05 20:42:00,42.6,38.1,29.80,NNW,330,2.0,7.0,84,0.00,,,0.06,meteohub,2013-04-06 00:42:00,
2013-04-05 20:47:00,42.6,38.1,29.80,NW,314,1.0,7.0,84,0.00,,,0.06,meteohub,2013-04-06 00:47:00,
2013-04-05 20:52:00,42.6,37.8,29.81,NW,314,2.0,7.0,83,0.00,,,0.06,meteohub,2013-04-06 00:52:00,
2013-04-05 20:57:00,42.6,37.8,29.81,NE,44,2.0,7.0,83,0.00,,,0.06,meteohub,2013-04-06 00:57:00,
2013-04-05 21:02:00,42.4,37.6,29.81,NNW,346,1.0,4.0,83,0.00,,,0.06,meteohub,2013-04-06 01:02:00,
2013-04-05 21:07:00,42.4,37.6,29.81,NE,42,0.0,5.0,83,0.00,,,0.06,meteohub,2013-04-06 01:07:00,
2013-04-05 21:13:00,42.3,37.8,29.81,North,0,1.0,5.0,84,0.00,,,0.06,meteohub,2013-04-06 01:13:00,
2013-04-05 21:18:00,42.1,37.6,29.81,NNW,331,3.0,5.0,84,0.00,,,0.06,meteohub,2013-04-06 01:18:00,
2013-04-05 21:23:00,42.1,37.6,29.81,NNW,345,0.0,5.0,84,0.00,,,0.06,meteohub,2013-04-06 01:23:00,
2013-04-05 21:28:00,41.7,37.6,29.81,North,355,1.0,4.0,85,0.00,,,0.06,meteohub,2013-04-06 01:28:00,
2013-04-05 21:34:00,41.7,37.6,29.81,NNE,22,1.0,4.0,85,0.00,,,0.06,meteohub,2013-04-06 01:34:00,
2013-04-05 21:39:00,41.4,37.6,29.81,NE,36,1.0,3.0,86,0.00,,,0.06,meteohub,2013-04-06 01:39:00,
2013-04-05 21:45:00,41.2,37.4,29.81,NE,36,1.0,4.0,86,0.00,,,0.06,meteohub,2013-04-06 01:45:00,
2013-04-05 21:50:00,40.8,37.0,29.81,SSE,163,2.0,4.0,86,0.00,,,0.06,meteohub,2013-04-06 01:50:00,
2013-04-05 21:55:00,40.8,37.2,29.83,East,91,3.0,4.0,87,0.00,,,0.06,meteohub,2013-04-06 01:55:00,
2013-04-05 22:01:00,41.2,37.6,29.83,East,87,6.0,6.0,87,0.00,,,0.06,meteohub,2013-04-06 02:01:00,
2013-04-05 22:06:00,43.0,37.6,29.84,ENE,77,5.0,13.0,81,0.00,,,0.06,meteohub,2013-04-06 02:06:00,
2013-04-05 22:11:00,43.9,37.2,29.84,East,94,3.0,13.0,77,0.00,,,0.06,meteohub,2013-04-06 02:11:00,
2013-04-05 22:16:00,44.1,36.7,29.85,East,82,2.0,8.0,75,0.00,,,0.06,meteohub,2013-04-06 02:16:00,
2013-04-05 22:21:00,44.2,36.9,29.85,East,99,5.0,7.0,75,0.00,,,0.06,meteohub,2013-04-06 02:21:00,
2013-04-05 22:27:00,44.4,36.7,29.85,East,90,3.0,7.0,74,0.00,,,0.06,meteohub,2013-04-06 02:27:00,
2013-04-05 22:32:00,44.2,36.5,29.86,East,88,2.0,7.0,74,0.00,,,0.06,meteohub,2013-04-06 02:32:00,
2013-04-05 22:37:00,44.1,36.7,29.86,ESE,111,3.0,7.0,75,0.00,,,0.06,meteohub,2013-04-06 02:37:00,
2013-04-05 22:42:00,44.1,36.3,29.86,ENE,74,1.0,6.0,74,0.00,,,0.06,meteohub,2013-04-06 02:42:00,
2013-04-05 22:48:00,44.1,36.3,29.87,ENE,76,3.0,6.0,74,0.00,,,0.06,meteohub,2013-04-06 02:48:00,
2013-04-05 22:53:00,43.7,36.3,29.87,ENE,76,3.0,6.0,75,0.00,,,0.06,meteohub,2013-04-06 02:53:00,
2013-04-05 22:58:00,43.5,36.1,29.87,ESE,107,7.0,10.0,75,0.00,,,0.06,meteohub,2013-04-06 02:58:00,
2013-04-05 23:04:00,43.5,35.8,29.87,East,80,2.0,10.0,74,0.00,,,0.06,meteohub,2013-04-06 03:04:00,
2013-04-05 23:09:00,43.3,35.6,29.88,East,86,5.0,10.0,74,0.00,,,0.06,meteohub,2013-04-06 03:09:00,
2013-04-05 23:14:00,43.2,35.1,29.88,ENE,78,5.0,9.0,73,0.00,,,0.06,meteohub,2013-04-06 03:14:00,
2013-04-05 23:19:00,43.2,35.1,29.88,ENE,78,4.0,9.0,73,0.00,,,0.06,meteohub,2013-04-06 03:19:00,
2013-04-05 23:24:00,43.0,34.9,29.89,ENE,77,2.0,9.0,73,0.00,,,0.06,meteohub,2013-04-06 03:24:00,
2013-04-05 23:29:00,42.6,34.5,29.89,East,95,9.0,9.0,73,0.00,,,0.06,meteohub,2013-04-06 03:29:00,
2013-04-05 23:35:00,42.8,34.3,29.89,East,90,16.0,16.0,72,0.00,,,0.06,meteohub,2013-04-06 03:35:00,
2013-04-05 23:40:00,43.0,33.8,29.89,ENE,74,5.0,10.0,70,0.00,,,0.06,meteohub,2013-04-06 03:40:00,
2013-04-05 23:45:00,43.0,33.1,29.90,East,84,9.0,22.0,68,0.00,,,0.06,meteohub,2013-04-06 03:45:00,
2013-04-05 23:50:00,42.4,32.7,29.90,ENE,68,4.0,22.0,68,0.00,,,0.06,meteohub,2013-04-06 03:50:00,
2013-04-05 23:56:00,42.3,32.9,29.90,East,80,9.0,17.0,69,0.00,,,0.06,meteohub,2013-04-06 03:56:00,